Other Public Products
Issued by NWS Charleston, SC

Current Version | Previous Version | Graphics & Text | Print | Product List | Glossary On
Versions: 1 2 3 4 5 6 7 8 9 10 11 12 13 14 15 16 17 18 19 20 21 22 23 24 25 26 27 28 29 30 31 32 33 34 35 36 37 38 39 40 41 42 43 44 45 46 47 48 49 50
000 FPUS82 KCHS 211527 OPUCHS TEST...KCHS/KSAV Gateway Observations...TEST National Weather Service Charleston SC 1000 AM EST SUN JAN 21 2018 NOTE: "fair" indicates few or no clouds below 12,000 feet with no significant weather and/or obstructions to visibility. SCZ050-WAZ558-NCZ071-TXZ119-213-PAZ071-DCZ001-FLZ074-172-MI076- NYZ176-178-MAZ016-IL014-TNZ027-NJZ106-GAZ044-MD014-211600- ...Gateway Observations for Charleston International... CITY SKY/WX TMP DP RH WIND PRES REMARKS Chas Airport PTSUNNY 52 34 50 N5 30.29S Seattle LGT RAIN 50 36 58 S24G40 29.76F Charlotte FAIR 48 37 65 NW3 30.28R Dallas DFW PTSUNNY 69 61 75 S17G24 29.87S Dallas Love PTSUNNY 67 61 81 S15 29.89F Philladelphia CLOUDY 42 33 70 W5 30.22R Wash National CLOUDY 43 35 73 CALM 30.23R Baltimore PTSUNNY 45 35 68 CALM 30.22R Miami CLOUDY 75 66 73 E10 30.19R Detroit FOG 37 36 96 CALM 30.07R VSB 1/4 Newark PTSUNNY 47 30 51 W5 30.19R Laguardia PTSUNNY 45 30 55 NW6 30.18R J F K PTSUNNY 47 31 53 NW10 30.19R Boston Logan FAIR 43 30 60 W7 30.15R Ft. Lauderdale PTSUNNY 73 67 81 SE15 30.18R Chicago O`Hare CLOUDY 40 37 89 CALM 29.97R FOG Chicago Midway CLOUDY 41 40 96 S5 29.98R FOG Houston Bush CLOUDY 67 65 93 S12 30.01R Houston Hobby PTSUNNY 66 66 100 SE8 30.01R Nashville PTSUNNY 57 44 62 S9 30.20R Atlanta FAIR 56 41 57 CALM 30.28R $$ GAZ044-118-TXZ119-213-NCZ071-DCZ001-MDZ014-506-PAZ021-071-NJZ106- NYZ176-178-MAZ106-OHZ011-021-055-MIZ076-KYZ091-ILZ014-INZ047- MNZ060-ONZ431-211600- ...Gateway Observations for Savannah International... CITY SKY/WX TMP DP RH WIND PRES REMARKS Savannah Arpt FAIR 54 35 48 CALM 30.31R Atlanta FAIR 56 41 57 CALM 30.28R Charlotte FAIR 48 37 65 NW3 30.28R Dallas DFW PTSUNNY 69 61 75 S17G24 29.87S Houston Bush CLOUDY 67 65 93 S12 30.01R Wash National CLOUDY 43 35 73 CALM 30.23R Wash Dulles PTSUNNY 51 36 56 CALM 30.21R Baltimore PTSUNNY 45 35 68 CALM 30.22R Philadelphia CLOUDY 42 33 70 W5 30.22R Newark PTSUNNY 47 30 51 W5 30.19R Laguardia PTSUNNY 45 30 55 NW6 30.18R J F K PTSUNNY 47 31 53 NW10 30.19R Boston FAIR 43 30 60 W7 30.15R Pittsburg CLOUDY 44 43 96 SW5 30.14R Akron FOG 39 37 92 SW7 30.11R VSB 1/8 WCI 34 Cleveland CLOUDY 41 40 96 S8 30.13R FOG Cincinnati CLOUDY 50 42 74 S9 30.11R Columbus CLOUDY 42 39 88 S8 30.11S Detroit FOG 37 36 96 CALM 30.07R VSB 1/4 Chicago O`Hare CLOUDY 40 37 89 CALM 29.97R FOG Minneapolis PTSUNNY 35 30 82 VRB3 29.98R Indianapolis FOG 44 44 100 SE6 30.06R VSB 1/2 Toronto Canada PTSUNNY 34 30 86 CALM 30.09S $$

USA.gov is the U.S. government's official web portal to all federal, state and local government web resources and services.